Date,TemperatureHighF,TemperatureAvgF,TemperatureLowF,DewpointHighF,DewpointAvgF,DewpointLowF,HumidityHigh,HumidityAvg,HumidityLow,PressureMaxIn,PressureMinIn,WindSpeedMaxMPH,WindSpeedAvgMPH,GustSpeedMaxMPH,PrecipitationSumIn
2012-12-1,59.5,44.7,35.9,53.0,40.0,32.0,87,84,75,30.23,29.91,12,2,15,0.03
2012-12-2,57.6,50.8,35.8,53.0,46.0,31.0,86,83,81,30.09,29.87,7,1,14,0.45
2012-12-3,65.1,54.4,35.0,59.0,49.2,30.0,86,83,78,30.10,29.80,10,2,16,0.01
2012-12-4,65.0,48.8,36.9,58.0,40.3,28.0,85,73,55,30.19,29.81,10,3,23,0.05
2012-12-5,38.1,32.1,29.2,27.0,22.4,20.0,78,68,56,30.45,30.20,9,0,13,0.00
2012-12-6,40.8,35.5,27.5,35.0,28.3,23.0,83,75,67,30.32,29.93,7,1,12,0.00
2012-12-7,45.6,42.4,40.1,40.0,37.5,35.0,86,83,76,29.98,29.90,0,0,4,0.03
2012-12-8,41.8,34.2,28.5,38.0,29.9,24.0,87,84,82,30.20,29.87,8,0,8,0.22
2012-12-9,34.3,32.3,30.8,30.0,28.1,27.0,87,84,82,30.19,29.70,6,1,11,0.02
2012-12-10,34.9,32.1,25.3,31.0,27.2,22.0,87,82,74,29.93,29.64,5,0,10,0.06
2012-12-11,34.9,29.3,22.1,29.0,23.1,18.0,87,78,63,30.12,29.93,14,2,15,0.00
2012-12-12,44.7,37.2,32.3,32.0,28.1,25.0,85,70,47,30.32,30.12,7,2,15,0.01
2012-12-13,48.7,38.0,29.2,34.0,26.3,22.0,84,65,37,30.32,30.12,11,1,18,0.00
2012-12-14,50.7,37.8,26.9,37.0,31.4,22.0,86,78,57,30.25,30.14,2,0,6,0.00
2012-12-15,46.7,39.1,32.5,40.0,34.0,29.0,86,81,74,30.14,29.60,8,1,13,0.47
2012-12-16,48.2,45.5,39.7,43.0,40.3,35.0,85,81,78,29.68,29.58,9,2,17,0.18
2012-12-17,42.1,38.4,30.9,36.0,33.4,27.0,86,82,73,29.73,29.66,4,0,8,0.00
2012-12-18,39.0,33.4,25.9,33.0,28.6,22.0,87,83,74,29.80,29.70,5,0,7,0.05
2012-12-19,40.4,35.9,30.7,36.0,31.3,26.0,87,83,81,30.11,29.76,2,0,6,0.00
2012-12-20,45.7,39.5,33.4,42.0,34.8,29.0,86,83,79,30.01,29.08,12,3,20,1.06
2012-12-21,37.6,33.6,31.0,34.0,28.6,24.0,87,82,71,30.05,29.16,22,6,26,0.03
2012-12-22,35.1,30.2,26.1,26.0,24.1,22.0,86,78,68,30.15,30.01,8,2,14,0.00
2012-12-23,31.6,26.3,19.2,26.0,21.2,15.0,88,81,72,30.08,29.92,5,0,11,0.00
2012-12-24,30.3,25.8,22.0,24.0,20.7,18.0,85,81,76,30.09,29.90,3,0,9,0.00
2012-12-25,30.7,25.2,17.5,23.0,18.9,14.0,88,77,66,30.38,30.09,2,0,8,0.00
2012-12-26,29.0,26.0,20.6,24.0,20.8,17.0,88,81,71,30.33,30.02,10,2,16,0.00
2012-12-27,31.5,24.9,20.5,23.0,20.1,17.0,88,82,69,30.20,30.08,4,0,8,0.00
2012-12-28,30.5,26.8,21.9,27.0,23.2,18.0,87,86,81,30.20,29.96,3,0,7,0.00
2012-12-29,31.5,27.3,22.2,26.0,23.5,19.0,87,85,79,30.13,29.89,3,0,9,0.00
2012-12-30,28.7,26.7,23.2,25.0,22.7,19.0,87,84,79,30.31,30.13,10,2,13,0.00
2012-12-31,36.5,30.3,25.9,30.0,24.8,18.0,87,80,71,30.14,29.96,9,3,16,0.01